Regional Weather Roundup
Issued by NWS

Home | Current Version | Previous Version | Graphics & Text | Print | Product List | Glossary On
Versions: 1 2 3 4 5 6 7 8 9 10 11 12 13 14 15 16 17 18 19 20 21 22 23 24 25 26 27 28 29 30 31 32 33 34 35 36 37 38 39 40 41 42 43 44 45 46 47 48 49 50
000
ASUS43 KMPX 011101
RWRMN
WEATHER ROUNDUP FOR MINNESOTA
NATIONAL WEATHER SERVICE TWIN CITIES/CHANHASSEN MN
600 AM CDT SAT AUG 01 2015


NOTE: "FAIR" INDICATES FEW OR NO CLOUDS BELOW 12,000 FEET WITH NO
SIGNIFICANT WEATHER AND/OR OBSTRUCTIONS TO VISIBILITY. N/A MEANS
CURRENT SKY AND/OR WEATHER CONDITIONS ARE NOT AVAILABLE.

MNZ060>063-068>070-011200-
   Twin Cities Metro

CITY           SKY/WX    TMP DP  RH WIND       PRES   REMARKS
TWIN CITIES    PTCLDY    67  59  75 CALM      29.96S
ST PAUL        PTCLDY    64  60  87 CALM      29.96F
CRYSTAL        CLEAR     63  59  87 CALM      29.95S
BLAINE         CLEAR     61  61 100 CALM      29.96S
LAKEVILLE      CLEAR     57  55  94 CALM      29.97S
EDEN PRAIRIE   CLEAR     63  59  87 CALM      29.95F
SOUTH ST PAUL  CLEAR     64  59  85 CALM      29.96S
LAKE ELMO      FAIR      59  57  94 CALM      29.98S
$$
MNZ001>005-007-008-013>017-022>024-027-028-011200-
   Northwest Minnesota

CITY           SKY/WX    TMP DP  RH WIND       PRES   REMARKS
BEMIDJI        CLEAR     53  49  87 W3        29.97R
HALLOCK        CLEAR     48  46  93 S3        29.94S
ROSEAU         CLEAR     54  48  82 SW6       29.93S
WARROAD        CLEAR     55  52  88 W3        29.93S
THIEF RVR FALL CLEAR     54  50  87 CALM      29.97R
CROOKSTON      CLEAR     54  52  94 CALM      29.97S
FOSSTON        CLEAR     48  48 100 S6        29.98S
DETROIT LAKES  CLEAR     59  55  88 CALM      30.00S
MOORHEAD       PTCLDY    57  55  94 CALM      29.98F
PARK RAPIDS    CLEAR     51  48  89 CALM      29.98S
MAHNOMEN       FAIR      54  51  89 CALM      29.97F
$$
MNZ006-009>011-018-025>026-011200-
   North Central Minnesota

CITY           SKY/WX    TMP DP  RH WIND       PRES   REMARKS
BAUDETTE       CLEAR     54  50  86 SW3       29.91S
FLAG ISLAND    CLEAR     61  54  77 W14       29.89S
INTL FALLS     CLEAR     53  49  86 W5        29.90S
WASKISH        CLEAR     63  55  77 W6        29.94S
BIG FORK       FAIR      48  48 100 CALM      29.94S
LONGVILLE      CLEAR     54  54 100 CALM      29.96S
GRAND RAPIDS   CLEAR     52  48  87 CALM      29.95S
CRANE LAKE     CLEAR     45  45 100 CALM      29.92S
ORR            CLEAR     50  46  87 CALM      29.90S
COOK           CLEAR     46  46 100 CALM      29.93S
WALKER         FAIR      51  49  93 W6        29.97R
$$
MNZ012-019>021-037-011200-
   Northeast Minnesota

CITY           SKY/WX    TMP DP  RH WIND       PRES   REMARKS
DULUTH         CLEAR     54  49  83 W7        29.94S
ELY            CLEAR     52  48  87 SW6       29.91S
HIBBING        CLEAR     45  43  93 SW3       29.94S
EVELETH        CLEAR     45  43  93 SW3       29.94S
DULUTH HARBOR  CLEAR     63  54  72 W8        29.93S
TWO HARBORS    CLEAR     55  52  88 NW3       29.91S
SILVER BAY     CLEAR     55  48  76 W5        29.90S
GRAND MARAIS     N/A     61  52  72 NW10G20   29.85R
G MARAIS ARPRT   N/A     54  48  82 W6        29.90R
$$
MNZ029>031-032-039>041-046>048-054>057-064-011200-
   West Central Minnesota

CITY           SKY/WX    TMP DP  RH WIND       PRES   REMARKS
FERGUS FALLS   CLEAR     59  57  94 CALM      29.98S
WHEATON        CLEAR     57  55  94 CALM      29.99F
MORRIS         CLEAR     57  55  94 CALM      29.98S
ALEXANDRIA     FOG       59  59 100 CALM      30.00S VSB 1/2
ELBOW LAKE     FAIR      60  60  99 CALM      29.98F
WADENA         CLEAR     54  54 100 CALM      29.98S
GLENWOOD       CLEAR     59  55  88 W3        30.00R
APPLETON       CLEAR     59  57  94 W6        29.98F FOG
BENSON         FOG       54  52  94 CALM      29.98F VSB 3/4
ORTONVILLE     CLEAR     61  57  88 CALM      29.98F
MADISON        CLEAR     59  55  88 W3        29.99F
WILLMAR        FAIR      57  57 100 CALM      29.99F
$$
MNZ033>034-036-042>043-049>051-058-059-011200-
   Central Minnesota

CITY           SKY/WX    TMP DP  RH WIND       PRES   REMARKS
ST CLOUD       FOG       56  55  97 CALM      29.97S VSB 1
SAUK CENTRE    FAIR      56  55  97 CALM      29.98F
PAYNESVILLE    CLEAR     53  53 100 CALM      29.98F
AITKIN         HAZE      52  45  76 CALM      29.95S VSB 3/4
PINE RIVER     CLEAR     48  48 100 CALM      30.00S
BRAINERD       CLEAR     53  53 100 CALM      29.97S
STAPLES        CLEAR     55  54  94 CALM      29.98S
LONG PRAIRIE   FOG       55  54  94 CALM      29.98F VSB 1
LITTLE FALLS     N/A     52  52 100 CALM      29.97S FOG
LITCHFIELD     CLEAR     61  61 100 CALM      29.98S
BUFFALO        CLEAR     59  56  89 CALM      29.98R
MAPLE LAKE     CLEAR     59  57  94 CALM      29.98S
$$
MNZ037-044-045-052-053-011200-
   East Central Minnesota

CITY           SKY/WX    TMP DP  RH WIND       PRES   REMARKS
PRINCETON      CLEAR     57  55  94 CALM      29.96F
MORA             N/A     52  50  93 CALM      29.97F FOG
CAMBRIDGE      CLEAR     61  54  77 CALM      29.94F
RUSH CITY      MOCLDY    54  52  95 CALM      29.95F FOG
MOOSE LAKE     CLEAR     50  48  93 CALM      29.94S
HINCKLEY       FAIR      50  50 100 CALM      29.96S
CLOQUET        CLEAR     55  48  76 W7        29.95S
MCGREGOR       CLEAR     48  46  93 CALM      29.96S
$$
MNZ071>073-080-081-089-090-097-098-011200-
   Southwest Minnesota

CITY           SKY/WX    TMP DP  RH WIND       PRES   REMARKS
MONTEVIDEO     CLEAR     61  55  82 NW3       30.00F
GRANITE FALLS  CLEAR     58  56  95 SW6       30.01S
CANBY          CLEAR     62  58  87 W3        30.01F
MARSHALL       CLEAR     63  55  77 NW3       30.01S
REDWOOD FALLS  CLEAR     61  59  93 W8        29.98S
OLIVIA         CLEAR     57  54  88 NW3       29.98S
PIPESTONE      CLEAR     63  61  94 W3        30.02S
WINDOM         CLEAR     61  57  88 CALM      30.01S
WORTHINGTON    CLEAR     64  59  82 SW8       30.01F
JACKSON        CLEAR     64  61  88 SW7       30.00F
TRACY          CLEAR     66  63  88 W3        30.01R
SLAYTON        CLEAR     65  63  91 CALM      30.03R
$$
MNZ065>067-074>077-082>085-091>093-011200-
   South Central Minnesota

CITY           SKY/WX    TMP DP  RH WIND       PRES   REMARKS
MANKATO        CLEAR     63  55  77 W7        29.98S
NEW ULM        CLEAR     57  55  94 W5        29.98S
ST JAMES       CLEAR     64  63  94 SW7       29.99F
FAIRMONT       CLEAR     64  55  72 W6        29.99F
GLENCOE        CLEAR     58  57  97 CALM      29.97R
FARIBAULT      CLEAR     63  59  88 CALM      29.97F
OWATONNA       CLEAR     61  55  82 SW6       29.98F
WASECA         CLEAR     55  54  94 SW3       30.00S
ALBERT LEA     CLEAR     66  59  77 SW8       29.99F
$$
MNZ078>079-086>088-094>096-011200-
   Southeast Minnesota

CITY           SKY/WX    TMP DP  RH WIND       PRES   REMARKS
ROCHESTER      CLEAR     59  56  89 S5        30.01S
RED WING       PTCLDY    61  57  88 CALM      29.96S
STANTON        CLEAR     60  57  91 CALM      29.96S
DODGE CENTER   CLEAR     59  55  88 SW5       29.99S
WINONA         MOCLDY    63  59  88 CALM      29.97F
AUSTIN         CLEAR     61  57  88 CALM      29.99F
PRESTON        CLEAR     60  56  86 S3        30.01F
$$
ABBREVIATIONS USED IN REMARKS
   TC - TEMPERATURES IN CELSIUS
  WCI - WIND CHILL INDEX
   HX - HEAT INDEX
  VSB - VISIBILITY
$$



USA.gov is the U.S. government's official web portal to all federal, state and local government web resources and services.